| time (UTC) | temp C | wind direction | speed KPH | gust KPH | rain 1hr cm | rain 24hr cm | rain mn cm | humidity % | barometer mb |
| 20260502232705 | 17 | 216 | 14.5 | 14.5 | 0.00 | 0.00 | 0.00 | 40 | 1013.1 |
| 20260502230705 | 17 | 241 | 16.1 | 16.1 | 0.00 | 0.00 | 0.00 | 39 | 1013.3 |
| 20260502224705 | 17 | 206 | 8.0 | 8.0 | 0.00 | 0.00 | 0.00 | 41 | 1013.6 |
| 20260502222705 | 17 | 191 | 8.0 | 8.0 | 0.00 | 0.00 | 0.00 | 40 | 1013.6 |
| 20260502220705 | 17 | 205 | 14.5 | 14.5 | 0.00 | 0.00 | 0.00 | 39 | 1013.8 |
| 20260502214705 | 17 | 205 | 11.3 | 11.3 | 0.00 | 0.00 | 0.00 | 40 | 1014.1 |
| 20260502212705 | 17 | 188 | 11.3 | 11.3 | 0.00 | 0.00 | 0.00 | 39 | 1014.5 |
| 20260502210705 | 17 | 232 | 11.3 | 11.3 | 0.00 | 0.00 | 0.00 | 38 | 1014.8 |
| 20260502204705 | 17 | 207 | 11.3 | 11.3 | 0.00 | 0.00 | 0.00 | 37 | 1015.1 |
| 20260502202705 | 17 | 196 | 17.7 | 17.7 | 0.00 | 0.00 | 0.00 | 37 | 1015.6 |
| 20260502200705 | 17 | 201 | 11.3 | 11.3 | 0.00 | 0.00 | 0.00 | 36 | 1016.1 |
| 20260502194705 | 16 | 180 | 16.1 | 16.1 | 0.00 | 0.00 | 0.00 | 38 | 1016.5 |
| 20260502192705 | 16 | 204 | 16.1 | 16.1 | 0.00 | 0.00 | 0.00 | 38 | 1016.9 |
| 20260502190705 | 17 | 226 | 14.5 | 14.5 | 0.00 | 0.00 | 0.00 | 36 | 1017.2 |
| 20260502184705 | 16 | 176 | 12.9 | 12.9 | 0.00 | 0.00 | 0.00 | 38 | 1017.6 |
| 20260502182705 | 16 | 224 | 12.9 | 12.9 | 0.00 | 0.00 | 0.00 | 37 | 1018.0 |
| 20260502180705 | 15 | 223 | 9.7 | 9.7 | 0.00 | 0.00 | 0.00 | 37 | 1018.4 |
| 20260502162706 | 12 | 202 | 11.3 | 11.3 | 0.00 | 0.00 | 0.00 | 40 | 1020.5 |
| 20260502160706 | 12 | 203 | 9.7 | 9.7 | 0.00 | 0.00 | 0.00 | 41 | 1020.8 |
| 20260502150706 | 11 | 217 | 8.0 | 8.0 | 0.00 | 0.00 | 0.00 | 46 | 1021.4 |
| 20260502130706 | 5 | 245 | 6.4 | 6.4 | 0.00 | 0.00 | 0.00 | 65 | 1022.7 |
| 20260502122706 | 2 | 238 | 4.8 | 4.8 | 0.00 | 0.00 | 0.00 | 74 | 1022.9 |
| 20260502120706 | 2 | 222 | 3.2 | 3.2 | 0.00 | 0.00 | 0.00 | 72 | 1023.0 |
| 20260502114706 | 2 | 219 | 4.8 | 4.8 | 0.00 | 0.00 | 0.00 | 64 | 1022.9 |
| 20260502112706 | 3 | 248 | 4.8 | 4.8 | 0.00 | 0.00 | 0.00 | 59 | 1022.8 |
| 20260502110706 | 3 | 243 | 0.0 | 0.0 | 0.00 | 0.00 | 0.00 | 59 | 1022.7 |
| 20260502104705 | 3 | 248 | 3.2 | 3.2 | 0.00 | 0.00 | 0.00 | 57 | 1022.7 |
| 20260502102706 | 3 | 240 | 4.8 | 4.8 | 0.00 | 0.00 | 0.00 | 57 | 1022.7 |
| 20260502100705 | 3 | 245 | 6.4 | 6.4 | 0.00 | 0.00 | 0.00 | 56 | 1022.6 |
| 20260502090705 | 3 | 244 | 4.8 | 4.8 | 0.00 | 0.00 | 0.00 | 58 | 1022.5 |
| 20260502090506 | 3 | 244 | 4.8 | 4.8 | 0.00 | 0.00 | 0.00 | 58 | 1022.5 |
| 20260502070705 | 5 | 245 | 6.4 | 6.4 | 0.00 | 0.00 | 0.00 | 59 | 1022.8 |
| 20260502064705 | 5 | 244 | 6.4 | 6.4 | 0.00 | 0.00 | 0.00 | 61 | 1023.0 |
| 20260502062705 | 5 | 238 | 4.8 | 4.8 | 0.00 | 0.00 | 0.00 | 59 | 1022.9 |
| 20260502060705 | 5 | 234 | 4.8 | 4.8 | 0.00 | 0.00 | 0.00 | 58 | 1022.9 |
| 20260502054705 | 5 | 241 | 4.8 | 4.8 | 0.00 | 0.00 | 0.00 | 58 | 1022.9 |
| 20260502052705 | 5 | 234 | 4.8 | 4.8 | 0.00 | 0.00 | 0.00 | 58 | 1022.9 |
| 20260502050705 | 6 | 212 | 6.4 | 6.4 | 0.00 | 0.00 | 0.00 | 54 | 1022.7 |
| 20260502044705 | 6 | 232 | 4.8 | 4.8 | 0.00 | 0.00 | 0.00 | 50 | 1022.6 |
| 20260502042705 | 6 | 228 | 4.8 | 4.8 | 0.00 | 0.00 | 0.00 | 49 | 1022.7 |
| 20260502040705 | 6 | 217 | 4.8 | 4.8 | 0.00 | 0.00 | 0.00 | 47 | 1022.6 |
| 20260502034705 | 7 | 228 | 4.8 | 4.8 | 0.00 | 0.00 | 0.00 | 46 | 1022.7 |
| 20260502032705 | 7 | 231 | 4.8 | 4.8 | 0.00 | 0.00 | 0.00 | 45 | 1022.7 |
| 20260502030705 | 7 | 231 | 3.2 | 3.2 | 0.00 | 0.00 | 0.00 | 44 | 1022.6 |
| 20260502024705 | 8 | 229 | 4.8 | 4.8 | 0.00 | 0.00 | 0.00 | 43 | 1022.5 |
| 20260502022705 | 8 | 235 | 3.2 | 3.2 | 0.00 | 0.00 | 0.00 | 42 | 1022.3 |
| 20260502020705 | 9 | 239 | 1.6 | 1.6 | 0.00 | 0.00 | 0.00 | 43 | 1022.1 |
| 20260502014705 | 10 | 231 | 1.6 | 1.6 | 0.00 | 0.00 | 0.00 | 39 | 1021.7 |
| 20260502012705 | 11 | 0.0 | 0.0 | 0.00 | 0.00 | 0.00 | 38 | 1021.4 | |
| 20260502010705 | 11 | 0.0 | 0.0 | 0.00 | 0.00 | 0.00 | 37 | 1021.3 | |
| 20260502004705 | 12 | 300 | 3.2 | 3.2 | 0.00 | 0.00 | 0.00 | 37 | 1021.3 |
| 20260502002705 | 11 | 338 | 0.0 | 0.0 | 0.00 | 0.00 | 0.00 | 39 | 1021.5 |
| 20260502000705 | 11 | 356 | 4.8 | 4.8 | 0.00 | 0.00 | 0.00 | 36 | 1021.4 |
| 20260501234705 | 11 | 358 | 4.8 | 4.8 | 0.00 | 0.00 | 0.00 | 39 | 1021.4 |